Hattiesburg, MS

2:52 PM CDT on May 21, 2018 (GMT -0500)
Chain Municipal

Weather History for KHBG - January, 2007

Change the Weather History Date:

Wednesday, January 3, 2007

  Actual Average Record
Temperature  
Mean Temperature 42 °F 49 °F  
Max Temperature 55 °F 60 °F 79 °F (1950)
Min Temperature 30 °F 38 °F 14 °F (1979)
Degree Days  
Heating Degree Days 22 16  
Month to date heating degree days 48  
Since 1 July heating degree days 833  
Cooling Degree Days 0 0  
Month to date cooling degree days 0  
Year to date cooling degree days 0  
Moisture  
Dew Point 36 °F    
Average Humidity 87    
Maximum Humidity 100    
Minimum Humidity 62    
Precipitation  
Precipitation 0.00 in 0.19 in 2.24 in (2015)
Month to date precipitation 0.56  
Year to date precipitation 0.56  
Sea Level Pressure  
Sea Level Pressure 30.31 in    
Wind  
Wind Speed 0 mph (ESE)    
Max Wind Speed 5 mph    
Max Gust Speed -    
Visibility 7 miles    
Events      
T = Trace of Precipitation, MM = Missing Value Source: NWS Daily Summary

Daily Weather History Graph

Daily Weather History Graph

Search for Another Location

Airport or City:

Astronomy

Jan. 03, 2007 Rise Set
Actual Time 6:56 AM CST 5:06 PM CST
Civil Twilight 6:29 AM CST 5:33 PM CST
Nautical Twilight 5:59 AM CST 6:03 PM CST
Astronomical Twilight 5:29 AM CST 6:33 PM CST
Moon 5:14 PM CST (1/3) 7:14 AM CST (1/3)
Length of Visible Light 11h 03m
Length of Day
10h 10m
Full, 100% of the Moon is Illuminated
Jan 3
Full
Jan 11
Last Quarter
Jan 18
New
Jan 25
First Quarter
Feb 1
Full

Hourly Weather History & Observations

Time (CST) Temp. Dew Point Humidity Pressure Visibility Wind Dir Wind Speed Gust Speed Precip Events Conditions
12:53 AM 33.1 °F 30.9 °F 92% 30.31 in 7.0 mi Calm Calm - N/A   Clear
1:53 AM 32.0 °F 30.0 °F 92% 30.32 in 9.0 mi Calm Calm - N/A   Clear
2:53 AM 30.9 °F 30.0 °F 96% 30.32 in 7.0 mi Calm Calm - N/A   Clear
3:36 AM 30.2 °F 30.2 °F 100% 30.33 in 7.0 mi Calm Calm - N/A   Partly Cloudy
3:53 AM 30.9 °F 30.0 °F 96% 30.33 in 6.0 mi Calm Calm - N/A   Clear
4:28 AM 30.2 °F 30.2 °F 100% 30.32 in 6.0 mi Calm Calm - N/A   Scattered Clouds
4:36 AM 30.2 °F 30.2 °F 100% 30.32 in 8.0 mi Calm Calm - N/A   Mostly Cloudy
4:49 AM 30.2 °F 28.4 °F 93% 30.33 in 2.0 mi Calm Calm - N/A   Overcast
4:53 AM 30.9 °F 28.9 °F 92% 30.33 in 5.0 mi Calm Calm - N/A   Mostly Cloudy
5:06 AM 30.2 °F 28.4 °F 93% 30.32 in 8.0 mi Calm Calm - N/A   Scattered Clouds
5:18 AM 30.2 °F 28.4 °F 93% 30.33 in 1.8 mi Calm Calm - N/A   Clear
5:26 AM 30.2 °F 28.4 °F 93% 30.32 in 3.0 mi Calm Calm - N/A   Clear
5:53 AM 30.0 °F 28.0 °F 92% 30.33 in 5.0 mi Calm Calm - N/A   Clear
6:53 AM 30.0 °F 28.0 °F 92% 30.34 in 7.0 mi Calm Calm - N/A   Scattered Clouds
7:01 AM 30.2 °F 28.4 °F 93% 30.34 in 9.0 mi Calm Calm - N/A   Mostly Cloudy
7:49 AM 33.8 °F 32.0 °F 93% 30.35 in 2.5 mi Calm Calm - N/A   Mostly Cloudy
7:53 AM 33.1 °F 33.1 °F 100% 30.36 in 2.0 mi Calm Calm - N/A   Scattered Clouds
8:09 AM 35.6 °F 33.8 °F 93% 30.36 in 5.0 mi Calm Calm - N/A   Clear
8:53 AM 39.9 °F 37.0 °F 89% 30.39 in 6.0 mi Calm Calm - N/A   Clear
9:53 AM 45.0 °F 39.0 °F 80% 30.39 in 8.0 mi Calm Calm - N/A   Clear
10:53 AM 48.0 °F 39.9 °F 74% 30.36 in 10.0 mi Calm Calm - N/A   Clear
11:53 AM 51.1 °F 41.0 °F 68% 30.34 in 10.0 mi Calm Calm - N/A   Clear
12:53 PM 54.0 °F 41.0 °F 62% 30.30 in 10.0 mi Calm Calm - N/A   Clear
1:53 PM 55.0 °F 42.1 °F 62% 30.29 in 10.0 mi Calm Calm - 0.00 in   Clear
2:53 PM 55.0 °F 42.1 °F 62% 30.28 in 10.0 mi Calm Calm - 0.00 in   Clear
3:53 PM 55.0 °F 42.1 °F 62% 30.29 in 10.0 mi Calm Calm - N/A   Clear
4:53 PM 53.1 °F 43.0 °F 69% 30.27 in 10.0 mi Calm Calm - N/A   Clear
5:53 PM 48.9 °F 45.0 °F 86% 30.27 in 10.0 mi Calm Calm - N/A   Clear
6:53 PM 48.0 °F 44.1 °F 86% 30.27 in 10.0 mi Calm Calm - N/A   Clear
7:53 PM 46.9 °F 44.1 °F 90% 30.26 in 10.0 mi Calm Calm - N/A   Clear
8:53 PM 46.9 °F 44.1 °F 90% 30.24 in 10.0 mi Calm Calm - N/A   Clear
9:53 PM 46.0 °F 44.1 °F 93% 30.24 in 8.0 mi Calm Calm - N/A   Clear
10:53 PM 46.9 °F 44.1 °F 90% 30.24 in 8.0 mi East 4.6 mph - N/A   Clear
11:53 PM 46.9 °F 45.0 °F 93% 30.19 in 9.0 mi SE 4.6 mph - N/A   Clear